Weather History for Altus AFB, OK

Change the Weather History Date:

Tuesday, November 11, 2014

  Actual Average Record
Temperature  
Mean Temperature 35 °F -  
Max Temperature 41 °F 61 °F 79 °F (2007)
Min Temperature 29 °F 40 °F 28 °F (1997)
Degree Days  
Heating Degree Days 30    
Moisture  
Dew Point 16 °F    
Average Humidity 49    
Maximum Humidity 64    
Minimum Humidity 36    
Precipitation  
Precipitation 0.00 in - - ()
Sea Level Pressure  
Sea Level Pressure 30.23 in    
Wind  
Wind Speed 22 mph (North)    
Max Wind Speed 30 mph    
Max Gust Speed 39 mph    
Visibility 10 miles    
Events      
Averages and records for this station are not official NWS values.
T = Trace of Precipitation, MM = Missing Value Source: NWS Daily Summary

Daily Weather History Graph

Daily Weather History Graph

Search for Another Location

Airport:

Trip Planner

Search our weather history database for the weather conditions in past years. The results will help you decide how hot, cold, wet, or windy it might be!

Date:

Astronomy

Nov. 11, 2014 Rise Set
Actual Time 7:07 AM CST 5:34 PM CST
Civil Twilight 6:40 AM CST 6:01 PM CST
Nautical Twilight 6:10 AM CST 6:31 PM CST
Astronomical Twilight 5:40 AM CST 7:01 PM CST
Moon 9:59 PM CST (11/11) 11:14 AM CST (11/11)
Length of Visible Light 11h 20m
Length of Day
10h 27m
Waning Gibbous, 76% of the Moon is Illuminated
Nov 11
Waning Gibbous
Nov 14
Last Quarter
Nov 22
New
Nov 29
First Quarter
Dec 6
Full

Hourly Weather History & Observations

Time (CST) Temp. Windchill Dew Point Humidity Pressure Visibility Wind Dir Wind Speed Gust Speed Precip Events Conditions
12:58 AM 35.6 °F 22.5 °F 20.3 °F 54% 29.94 in 10.0 mi North 29.9 mph 36.8 mph N/A   Clear
1:58 AM 34.3 °F 21.0 °F 20.7 °F 57% 29.99 in 10.0 mi North 28.8 mph 38.0 mph N/A   Clear
2:26 AM 33.8 °F 20.3 °F 19.4 °F 56% 30.01 in 10.0 mi North 28.8 mph 39.1 mph N/A   Squalls
2:58 AM 33.3 °F 20.1 °F 19.4 °F 57% 30.03 in 10.0 mi North 26.5 mph 32.2 mph N/A   Clear
3:58 AM 32.0 °F 18.6 °F 18.7 °F 58% 30.08 in 10.0 mi North 25.3 mph 35.7 mph N/A   Clear
4:58 AM 30.2 °F 17.1 °F 19.2 °F 64% 30.12 in 10.0 mi North 21.9 mph 25.3 mph N/A   Partly Cloudy
5:58 AM 29.7 °F 15.2 °F 18.3 °F 63% 30.17 in 10.0 mi North 26.5 mph 31.1 mph N/A   Scattered Clouds
6:03 AM 30.2 °F 16.8 °F 17.6 °F 60% 30.17 in 10.0 mi North 23.0 mph 29.9 mph N/A   Mostly Cloudy
6:48 AM 30.2 °F 17.1 °F 17.6 °F 60% 30.19 in 10.0 mi North 21.9 mph 31.1 mph N/A   Scattered Clouds
6:58 AM 29.7 °F 16.4 °F 17.8 °F 61% 30.20 in 10.0 mi North 21.9 mph 32.2 mph N/A   Partly Cloudy
7:58 AM 30.0 °F 16.6 °F 16.2 °F 56% 30.25 in 10.0 mi North 23.0 mph 31.1 mph N/A   Clear
8:58 AM 31.5 °F 19.4 °F 15.4 °F 52% 30.26 in 10.0 mi North 19.6 mph 32.2 mph N/A   Clear
9:58 AM 34.2 °F 23.3 °F 16.0 °F 47% 30.30 in 10.0 mi North 18.4 mph - N/A   Clear
10:58 AM 35.2 °F 23.8 °F 16.0 °F 45% 30.30 in 10.0 mi North 21.9 mph 26.5 mph N/A   Clear
11:58 AM 37.6 °F 27.7 °F 16.0 °F 41% 30.29 in 10.0 mi North 18.4 mph 26.5 mph N/A   Clear
12:32 PM 39.2 °F 30.5 °F 15.8 °F 39% 30.24 in 10.0 mi NNW 16.1 mph 24.2 mph N/A   Clear
12:58 PM 39.4 °F 31.1 °F 16.2 °F 39% 30.27 in 10.0 mi North 15.0 mph 23.0 mph N/A   Clear
12:59 PM 39.2 °F 30.2 °F 15.8 °F 39% 30.24 in 10.0 mi NNE 17.3 mph 21.9 mph N/A   Clear
1:49 PM 41.0 °F 32.5 °F 15.8 °F 36% 30.23 in 10.0 mi NNE 17.3 mph 24.2 mph N/A   Clear
1:58 PM 40.5 °F 32.5 °F 16.2 °F 37% 30.25 in 10.0 mi North 15.0 mph - N/A   Clear
1:59 PM 41.0 °F 33.5 °F 15.8 °F 36% 30.22 in 10.0 mi North 13.8 mph 21.9 mph N/A   Clear
2:57 PM 41.0 °F 33.9 °F 15.8 °F 36% 30.22 in 10.0 mi NNW 12.7 mph 23.0 mph N/A   Clear
2:58 PM 41.0 °F 33.9 °F 16.2 °F 37% 30.25 in 10.0 mi North 12.7 mph 23.0 mph N/A   Clear
3:58 PM 40.6 °F 32.7 °F 15.8 °F 37% 30.25 in 10.0 mi North 15.0 mph - N/A   Clear
4:58 PM 38.7 °F 30.5 °F 15.3 °F 39% 30.26 in 10.0 mi NNE 13.8 mph - N/A   Clear
5:58 PM 34.9 °F 26.6 °F 15.3 °F 45% 30.28 in 10.0 mi NNE 11.5 mph - N/A   Clear
6:58 PM 32.0 °F 24.2 °F 16.0 °F 52% 30.32 in 10.0 mi North 9.2 mph - N/A   Clear
7:58 PM 29.3 °F 20.8 °F 16.5 °F 59% 30.35 in 10.0 mi NNE 9.2 mph - N/A   Clear
8:58 PM 29.5 °F 21.1 °F 15.1 °F 55% 30.37 in 10.0 mi North 9.2 mph - N/A   Clear
9:58 PM 29.7 °F 20.7 °F 12.4 °F 49% 30.39 in 10.0 mi North 10.4 mph - N/A   Clear
10:58 PM 29.8 °F 19.8 °F 10.2 °F 44% 30.40 in 10.0 mi North 12.7 mph 23.0 mph N/A   Clear
11:58 PM 29.1 °F 16.7 °F 9.9 °F 45% 30.40 in 10.0 mi North 18.4 mph 24.2 mph N/A   Clear